Terug naar catalogus

NAVSTAR 76

USA 266

ActiefNavigatieHEO
NORAD 41328·PAYLOAD·🇺🇸 United States

Gelanceerd Feb 5, 2016 vanaf Cape Canaveral Space Force Station

Loading…

Volgende Passages (komende 24 uur)

TLE

VersSource: CelesTrak SupGP

Epoch: Sep 16, 2026, 16:44 UTC

1 41328C 16007A   26259.69756944  .00000000  00000+0  00000+0 0  2593
2 41328  55.5858  85.8321 0097727 247.2554 178.5479  2.00572832    15

Volg NAVSTAR 76 in realtime met AllMySat

Download on the App Store